Location: Vancouver
(49.2500°N, 123.1330°W)
Time: 23:22:22
(UTC-08:00)

deb Explorer IX - Visible Passes

Search period start: 24 November 2017 00:00
Search period end: 04 December 2017 00:00
Orbit: 541 x 1122 km, 38.8° (Epoch: 24 November)

Date Brightness Start Highest point End Pass type
(mag) Time Alt. Az. Time Alt. Az. Time Alt. Az.
25 Nov ? 06:48:01 10° SSW 06:50:24 15° SSE 06:52:54 10° SE visible
26 Nov ? 06:28:03 10° SSW 06:30:24 15° SSE 06:32:51 10° SE visible
27 Nov ? 06:08:04 10° SSW 06:10:24 15° SSE 06:12:48 10° SE visible
28 Nov ? 05:48:03 10° SSW 05:50:24 15° SSE 05:52:48 10° SE visible
29 Nov ? 05:28:20 11° SSW 05:30:24 15° SSE 05:32:49 10° SE visible
30 Nov ? 05:09:36 15° S 05:10:23 15° SSE 05:12:50 10° SE visible
30 Nov ? 06:53:30 10° SW 06:56:28 19° S 06:59:33 10° SE visible
01 Dec ? 04:50:49 15° SSE 04:50:49 15° SSE 04:52:53 10° SE visible
01 Dec ? 06:33:33 10° SW 06:36:28 19° S 06:39:27 10° SE visible
02 Dec ? 04:31:58 13° SE 04:31:58 13° SE 04:32:56 10° SE visible
02 Dec ? 06:13:35 10° SW 06:16:28 19° S 06:19:23 10° SE visible
03 Dec ? 05:54:36 14° SW 05:56:28 19° S 05:59:20 10° SE visible
